Greybull, WY

3:02 PM MST on February 06, 2016 (GMT -0700)
South Big Horn County

Weather History for KGEY - January, 2014

Change the Weather History Date:

Sunday, January 12, 2014

  Actual Average Record
Temperature  
Mean Temperature 36 °F 16 °F  
Max Temperature 46 °F 29 °F 46 °F (1999)
Min Temperature 26 °F 4 °F -21 °F (2007)
Degree Days  
Heating Degree Days 29 48  
Month to date heating degree days 522 587  
Since 1 July heating degree days 3637 3910  
Cooling Degree Days 0 0  
Month to date cooling degree days 0 0  
Year to date cooling degree days 0 0  
Moisture  
Dew Point 23 °F    
Average Humidity 61    
Maximum Humidity 85    
Minimum Humidity 37    
Precipitation  
Precipitation T in 0.01 in 0.08 in (2000)
Month to date precipitation T 0.11  
Year to date precipitation T 0.11  
Sea Level Pressure  
Sea Level Pressure 29.74 in    
Wind  
Wind Speed 7 mph (SE)    
Max Wind Speed 23 mph    
Max Gust Speed 29 mph    
Visibility 10 miles    
Events      
T = Trace of Precipitation, MM = Missing Value Source: NWS Daily Summary

Daily Weather History Graph

Daily Weather History Graph

Search for Another Location

Airport or City:

Trip Planner

Search our weather history database for the weather conditions in past years. The results will help you decide how hot, cold, wet, or windy it might be!

Date:

Astronomy

Jan. 12, 2014 Rise Set
Actual Time 7:46 AM MST 4:54 PM MST
Civil Twilight 7:14 AM MST 5:27 PM MST
Nautical Twilight 6:37 AM MST 6:03 PM MST
Astronomical Twilight 6:03 AM MST 6:38 PM MST
Moon 2:26 PM MST (1/12) 4:47 AM MST (1/12)
Length of Visible Light 10h 13m
Length of Day
9h 08m
Waxing Gibbous, 90% of the Moon is Illuminated
Jan 12
Waxing Gibbous
Jan 15
Full
Jan 23
Last Quarter
Jan 30
New
Feb 6
First Quarter

Hourly Weather History & Observations

Time (MST) Temp. Windchill Dew Point Humidity Pressure Visibility Wind Dir Wind Speed Gust Speed Precip Events Conditions
12:53 AM 37.9 °F 34.4 °F 30.9 °F 76% 29.53 in 10.0 mi SE 4.6 mph - 0.00 in   Mostly Cloudy
1:53 AM 36.0 °F 31.1 °F 30.9 °F 82% 29.54 in 10.0 mi South 5.8 mph - N/A   Clear
2:53 AM 32.0 °F 25.6 °F 27.0 °F 82% 29.55 in 10.0 mi South 6.9 mph - N/A   Clear
3:53 AM 32.0 °F - 27.0 °F 82% 29.55 in 10.0 mi Calm Calm - N/A   Clear
4:53 AM 30.9 °F 24.3 °F 26.1 °F 82% 29.55 in 10.0 mi SE 6.9 mph - N/A   Clear
5:53 AM 30.0 °F 24.1 °F 25.0 °F 82% 29.56 in 10.0 mi ESE 5.8 mph - N/A   Clear
6:53 AM 30.9 °F 22.8 °F 25.0 °F 79% 29.59 in 10.0 mi South 9.2 mph - N/A   Clear
7:53 AM 28.9 °F 23.9 °F 23.0 °F 78% 29.63 in 10.0 mi South 4.6 mph - N/A   Partly Cloudy
8:53 AM 30.0 °F 25.2 °F 24.1 °F 79% 29.66 in 10.0 mi ESE 4.6 mph - N/A   Clear
9:53 AM 30.9 °F 24.3 °F 25.0 °F 79% 29.69 in 10.0 mi SE 6.9 mph - N/A   Clear
10:53 AM 35.1 °F 31.0 °F 27.0 °F 72% 29.70 in 10.0 mi ESE 4.6 mph - N/A   Mostly Cloudy
11:53 AM 41.0 °F 37.1 °F 24.1 °F 51% 29.70 in 10.0 mi East 5.8 mph - N/A   Overcast
12:53 PM 43.0 °F 40.3 °F 23.0 °F 45% 29.70 in 10.0 mi NW 4.6 mph - N/A   Overcast
1:53 PM 44.1 °F - 21.0 °F 40% 29.74 in 10.0 mi Calm Calm - N/A   Overcast
2:53 PM 45.0 °F 41.2 °F 21.9 °F 40% 29.78 in 10.0 mi NNE 6.9 mph - N/A   Overcast
3:53 PM 45.0 °F 38.5 °F 19.9 °F 37% 29.81 in 10.0 mi NNW 13.8 mph 28.8 mph N/A   Overcast
4:00 PM 43.0 °F 36.0 °F 21.9 °F 43% 29.77 in 10.0 mi NW 13.8 mph - N/A   Overcast
4:53 PM 39.0 °F 29.9 °F 19.9 °F 46% 29.87 in 10.0 mi WNW 17.3 mph - N/A   Clear
5:53 PM 37.9 °F 32.7 °F 21.0 °F 51% 29.91 in 10.0 mi WNW 6.9 mph - N/A   Overcast
6:53 PM 36.0 °F 27.5 °F 18.0 °F 48% 29.93 in 10.0 mi West 12.7 mph - N/A   Clear
7:53 PM 30.9 °F 23.5 °F 16.0 °F 54% 29.96 in 10.0 mi NNW 8.1 mph - N/A   Scattered Clouds
8:53 PM 28.0 °F 21.7 °F 15.1 °F 58% 29.96 in 10.0 mi Variable 5.8 mph - N/A   Clear
9:53 PM 27.0 °F 20.5 °F 16.0 °F 63% 29.97 in 10.0 mi SE 5.8 mph - N/A   Clear
10:53 PM 28.0 °F 20.8 °F 17.1 °F 63% 29.95 in 10.0 mi SE 6.9 mph - N/A   Overcast
11:53 PM 30.0 °F 22.4 °F 17.1 °F 59% 29.92 in 10.0 mi ESE 8.1 mph - N/A   Overcast